Location: Hancock Field Station
(44.9202°N, 120.4259°W)
Time: 14:23:06
(UTC-07:00)

Nadezhda 4 Rocket - Visible Passes

Search period start: 27 May 2018 00:00
Search period end: 06 June 2018 00:00
Orbit: 950 x 992 km, 82.9° (Epoch: 27 May)

Date Brightness Start Highest point End Pass type
(mag) Time Alt. Az. Time Alt. Az. Time Alt. Az.
27 May 6.2 00:08:49 10° NW 00:12:35 17° W 00:16:21 10° WSW visible
27 May 4.4 22:45:58 10° NNW 22:52:10 60° W 22:56:55 18° SSW visible
28 May 4.7 21:24:57 10° N 21:30:51 40° ENE 21:36:35 11° SE visible
28 May 5.3 23:10:24 10° NNW 23:16:02 35° W 23:21:09 12° SSW visible
29 May 4.1 21:48:47 10° N 21:55:06 67° E 22:00:50 13° SSE visible
29 May 6.0 23:35:15 10° NW 23:39:45 21° W 23:44:15 10° SW visible
30 May 4.2 22:12:52 10° NNW 22:19:11 75° W 22:25:09 12° S visible
31 May 6.5 00:01:22 10° WNW 00:03:18 11° WNW 00:05:14 10° W visible
31 May 5.0 22:37:11 10° NNW 22:43:07 44° W 22:49:02 10° SSW visible
01 Jun 4.3 21:15:48 10° N 21:22:01 54° ENE 21:28:12 10° SSE visible
01 Jun 5.8 23:01:50 10° NNW 23:06:53 26° W 23:11:56 10° SW visible
02 Jun 4.1 21:39:48 10° N 21:46:10 90° E 21:52:31 10° S visible
02 Jun 6.4 23:27:11 10° NW 23:30:30 15° WNW 23:33:49 10° WSW visible
03 Jun 4.7 22:04:01 10° NNW 22:10:10 54° W 22:16:17 10° SSW visible
04 Jun 5.6 22:28:31 10° NNW 22:34:00 32° W 22:39:27 10° SW visible
05 Jun 6.3 22:53:30 10° NW 22:57:41 19° W 23:01:51 10° WSW visible
